Главная страница
METAR-TAF:

METAR-TAF

Аэропорты :

William H. Morse State Airport

Bennington, Вермонт, США

широта: 42-53-24N, долгота: 073-14-47W, высота над уровнем моря: 252 м

Текущие метеонаблюдения

Эта сводка был подготовлена 16 минут назад, в 10:54 UTC
Штиль
Температура -12°C
Влажность 85%
Давление 1019 hPa
Видимость: 16.1 км
ясное небо

METAR: KDDH 191054Z AUTO 00000KT 10SM CLR M12/M14 A3010 RMK AO2 SLP208 I1000 T11221144

Время: 06:10 (11:10 UTC)


TAF: отсутствует

Метеонаблюдения и прогнозы для более 4000 аэропортов (сводки METAR и TAF).

Имеющиеся станции представлены на карте желтыми и красными точками.

Чтобы увидеть название станции, наведите на нее мышь.

Затем щелкните, чтобы увидеть метеонаблюдения и метеопрогнозы.

Управление картой: чтобы увеличить масштаб, щелкните зеленые кнопки с черным крестиком; чтобы уменьшить масштаб, щелкните зеленую кнопку с тире; для просмотра соседних карт щелкайте зеленые стрелки.


METAR-TAF: